Location: A�t Bou Chrif
(32.7193°N, 5.2385°W)
Time: 00:11:13
(UTC+00:00)

SL-08 R/B - Pass Details

Date: 08 August 2020
Orbit: 950 x 1018 km, 82.9° (Epoch: 18 September)

Event Time Altitude Azimuth Distance (km) Brightness Sun altitude
Rises 20:09:44 0° 178° (S) 3,687 7.2 -11.8°
Reaches altitude 10° 20:12:16 10° 176° (S) 2,732 6.5 -12.3°
Maximum altitude 20:18:29 72° 94° (E) 1,019 4.4 -13.4°
Drops below altitude 10° 20:24:39 10° 11° (N) 2,702 7.1 -14.6°
Sets 20:27:08 0° 9° (N) 3,644 7.8 -15.0°
